Regional Weather Roundup
Issued by NWS

Home | Current Version | Previous Version | Graphics & Text | Print | Product List | Glossary Off
Versions: 1 2 3 4 5 6 7 8 9 10 11 12 13 14 15 16 17 18 19 20 21 22 23 24 25 26 27 28 29 30 31 32 33 34 35 36 37 38 39 40 41 42 43 44 45 46 47 48 49 50

000
ASUS43 KMKX 230021
RWRWI

WISCONSIN REGIONAL WEATHER ROUNDUP
NATIONAL WEATHER SERVICE MILWAUKEE/SULLIVAN WI
700 PM CDT MON SEP 22 2014

NOTE: "FAIR" INDICATES FEW OR NO CLOUDS BELOW 12,000 FEET WITH NO
SIGNIFICANT WEATHER AND/OR OBSTRUCTIONS TO VISIBILITY.

WIZ001-002-006>008-014>016-023>028-230100-
NORTHWEST WISCONSIN

CITY           SKY/WX    TMP DP  RH WIND       PRES   REMARKS
SUPERIOR ARPT  CLEAR     65  52  63 SW6       30.09S
6HR MIN TEMP:  65; 6HR MAX TEMP:  73;

ASHLAND        CLEAR     60  53  77 S6        30.11S
6HR MIN TEMP:  60; 6HR MAX TEMP:  71;

HAYWARD        CLEAR     65  51  60 SW5       30.14F
6HR MIN TEMP:  63; 6HR MAX TEMP:  68;

SIREN          CLEAR     64  52  64 SW5       30.14S
6HR MIN TEMP:  64; 6HR MAX TEMP:  70;

RICE LAKE      CLEAR     61  51  69 CALM      30.17S
6HR MIN TEMP:  63; 6HR MAX TEMP:  68;

LADYSMITH      CLEAR     62  51  67 SW3       30.17F
6HR MIN TEMP:  62; 6HR MAX TEMP:  69;

EAU CLAIRE     CLEAR     64  51  62 SW3       30.16F
6HR MIN TEMP:  64; 6HR MAX TEMP:  70;

MENOMONIE      CLEAR     64  50  60 CALM      30.17S
6HR MIN TEMP:  65; 6HR MAX TEMP:  71;

NEW RICHMOND   CLEAR     64  51  63 SW5       30.16F
6HR MIN TEMP:  64; 6HR MAX TEMP:  70;

OSCEOLA        CLEAR     66  52  61 S3        30.18S
6HR MIN TEMP:  66; 6HR MAX TEMP:  71;

$$

WIZ003>005-009-010-017-018-230100-
NORTH CENTRAL WISCONSIN

CITY           SKY/WX    TMP DP  RH WIND       PRES   REMARKS
WOODRUFF       CLEAR     59  48  67 CALM      30.15S
6HR MIN TEMP:  59; 6HR MAX TEMP:  65;

RHINELANDER    CLEAR     55  48  77 W3        30.16S
6HR MIN TEMP:  55; 6HR MAX TEMP:  66;

EAGLE RIVER    CLEAR     55  47  73 SW3       30.14S
6HR MIN TEMP:  55; 6HR MAX TEMP:  65;

LAND O LAKES   CLEAR     57  49  76 CALM      30.14S
6HR MIN TEMP:  57; 6HR MAX TEMP:  67;

PHILLIPS       CLEAR     55  51  84 CALM      30.15S
6HR MIN TEMP:  57; 6HR MAX TEMP:  66;

TOMAHAWK       CLEAR     57  49  75 CALM      30.16S
6HR MIN TEMP:  57; 6HR MAX TEMP:  65;

MEDFORD        CLEAR     58  51  76 SW3       30.17S
6HR MIN TEMP:  58; 6HR MAX TEMP:  65;

MERRILL        CLEAR     58  50  76 W5        30.17R
6HR MIN TEMP:  58; 6HR MAX TEMP:  66;

$$

WIZ029-030-035-036-043>047-230100-
CENTRAL WISCONSIN

CITY           SKY/WX    TMP DP  RH WIND       PRES   REMARKS
WAUSAU         CLEAR     60  49  66 W6        30.16S
6HR MIN TEMP:  60; 6HR MAX TEMP:  66;

MOSINEE        CLEAR     57  52  82 W6        30.18S
MARSHFIELD     CLEAR     61  51  70 W5        30.18S
6HR MIN TEMP:  61; 6HR MAX TEMP:  68;

STEVENS POINT  CLEAR     60  49  66 W3        30.18S
6HR MIN TEMP:  60; 6HR MAX TEMP:  65;

WAUPACA        CLEAR     63  51  64 SW5       30.17S
6HR MIN TEMP:  63; 6HR MAX TEMP:  71;

WAUTOMA        CLEAR     62  52  70 SW5       30.19S
6HR MIN TEMP:  62; 6HR MAX TEMP:  71;

WISC RAPIDS    CLEAR     62  50  64 W5        30.19S
6HR MIN TEMP:  62; 6HR MAX TEMP:  69;

CAMP DOUGLAS   CLEAR     61  55  82 CALM      30.19S
$$

WIZ011>013-019>022-031-037>040-048>050-230100-
NORTHEAST WISCONSIN

CITY           SKY/WX    TMP DP  RH WIND       PRES   REMARKS
ANTIGO         CLEAR     56  49  78 W5        30.17R
6HR MIN TEMP:  56; 6HR MAX TEMP:  65;

STURGEON BAY   CLEAR     61  48  63 SW6       30.16R
6HR MIN TEMP:  61; 6HR MAX TEMP:  66;

GREEN BAY      CLEAR     60  51  72 SW3       30.16S
6HR MIN TEMP:  60; 6HR MAX TEMP:  69;

MANITOWOC      CLEAR     63  50  62 SW3       30.17S
6HR MIN TEMP:  63; 6HR MAX TEMP:  67;

APPLETON       CLEAR     63  48  59 SW7       30.17S
CLINTONVILLE   CLEAR     61  50  67 CALM      30.16R
OSHKOSH        CLEAR     63  50  62 SW3       30.17S
6HR MIN TEMP:  63; 6HR MAX TEMP:  68;

$$

WIZ032>034-041-042-053>061-230100-
SOUTHWEST WISCONSIN

CITY           SKY/WX    TMP DP  RH WIND       PRES   REMARKS
LA CROSSE      CLEAR     65  54  67 CALM      30.17F
6HR MIN TEMP:  65; 6HR MAX TEMP:  73; 6HR PCP: TRACE;

SPARTA         CLEAR     61  52  72 CALM      30.19S
VIROQUA        FAIR      61  51  70 SW3       30.20S
6HR MIN TEMP:  61; 6HR MAX TEMP:  70;

BOSCOBEL       CLEAR     64  52  64 CALM      30.20S
6HR MIN TEMP:  64; 6HR MAX TEMP:  72;

PRAIRIE DU CHI CLEAR     65  53  64 CALM      30.19S
6HR MIN TEMP:  65; 6HR MAX TEMP:  72;

PLATTEVILLE    FAIR      63  49  59 CALM      30.22S
6HR MIN TEMP:  63; 6HR MAX TEMP:  69;

$$

WIZ056-057-062-063-064-067-068-230100-
SOUTH CENTRAL WISCONSIN

CITY           SKY/WX    TMP DP  RH WIND       PRES   REMARKS
BARABOO/DELLS  CLEAR     62  49  63 CALM      30.20S
6HR MIN TEMP:  62; 6HR MAX TEMP:  69;

LONE ROCK      CLEAR     66  50  56 CALM      30.19F
6HR MIN TEMP:  66; 6HR MAX TEMP:  73;

WATERTOWN      CLEAR     62  48  61 CALM      30.20S
6HR MIN TEMP:  62; 6HR MAX TEMP:  68;

MADISON        PTCLDY    60  51  72 CALM      30.20F
6HR MIN TEMP:  60; 6HR MAX TEMP:  70;

MIDDLETON      FAIR      60  51  71 CALM      30.21S
6HR MIN TEMP:  60; 6HR MAX TEMP:  70;

MONROE         CLEAR     63  46  55 W7        30.21F
JANESVILLE     CLEAR     64  45  48 CALM      30.21S
$$

WIZ051-052-058>065-066-070>072-230100-
SOUTHEAST WISCONSIN

CITY           SKY/WX    TMP DP  RH WIND       PRES   REMARKS
MILWAUKEE      PTCLDY    66  45  46 W5        30.20S
6HR MIN TEMP:  64; 6HR MAX TEMP:  68;

WAUKESHA       CLEAR     61  46  59 W9        30.21S
MILWAUKEE/TIMM CLEAR     63  45  51 CALM      30.20F
RACINE         CLEAR     58  49  72 S8        30.22S
6HR MIN TEMP:  58; 6HR MAX TEMP:  67;

BURLINGTON     CLEAR     57  47  69 SW3       30.21S
6HR MIN TEMP:  57; 6HR MAX TEMP:  67;

KENOSHA        CLEAR     63  48  58 SW3       30.21S
6HR MIN TEMP:  60; 6HR MAX TEMP:  68;

FOND DU LAC    CLEAR     62  49  62 SW5       30.18S
6HR MIN TEMP:  62; 6HR MAX TEMP:  68;

SHEBOYGAN      CLEAR     57  49  74 CALM      30.18S
6HR MIN TEMP:  56; 6HR MAX TEMP:  68;

WEST BEND      CLEAR     59  46  63 SW3       30.19S
JUNEAU         CLEAR     58  49  71 SW3       30.20F
6HR MIN TEMP:  58; 6HR MAX TEMP:  66;

$$

LSZ147-162-230100-
LAKE SUPERIOR

STATION/POSITION TIME  TEMP    WIND        PRES    WAVE
                       AIR SEA DIR/SP/G            HT/PER
                 (UTC) (F)     (DEG/KT/KT) (MB)    (FT/S)
W MID LAKE BUOY  2350   54 47  220/ 12/ 12 1017.7S   2/ 4
DEVILS ISLAND    0000   62     220/ 14/ 16 1018.4R
PORT WING        2300   71     220/  6/ 10 1019.0
SAXON HARBOR     2300   69     200/  3/  8 1019.6S
$$

LMZ867-665-643>646-230100-
LAKE MICHIGAN

STATION/POSITION TIME  TEMP    WIND        PRES    WAVE
                       AIR SEA DIR/SP/G            HT/PER
                 (UTC) (F)     (DEG/KT/KT) (MB)    (FT/S)
N MID LAKE BUOY  2350   58 57  210/ 17/ 19 1019.7F   2/ 4
NORTHPORT PIER   0000   60     190/  2/ 14 1019.6S
KEWAUNEE LAKESHO 2300   66     240/  3/  5 1020.2R
SHEBOYGAN LAKESH 0000   58 53  190/  8/  9 1022.3R
PORT WASHINGTON  2340   57     190/  6/ 11 1022.7S
ATWATER BUOY     0000   58     160/ 10/ 12 1023.4F
S MID LAKE BUOY  2350   60 62  190/ 10/ 10 1023.5F   1/ 6
KENOSHA   LAKESH 0000   58     180/  8/ 12 1022.7R
$$

TC  - TEMPERATURE IN CELSIUS
VSB - VISIBILITY IN STATUTE MILES
WCI - WIND CHILL INDEX
HX  - HEAT INDEX



USA.gov is the U.S. government's official web portal to all federal, state and local government web resources and services.